DW3560 Weather Reports


time (UTC)temp
F
wind
direction
speed
knots
gust
knots
rain 1hr
in
rain 24hr
in
rain mn
in
humidity
%
barometer
mb
20260903233503 72 298 2.6 7.8 0.00 0.00 0.00 69 1013.6
20260903233003 72 293 2.6 7.8 0.00 0.00 0.00 68 1013.6
20260903232524 72 280 2.6 7.8 0.00 0.00 0.00 69 1013.6
20260903232024 72 273 2.6 7.8 0.00 0.00 0.00 68 1013.6
20260903231503 72 313 2.6 11.3 0.00 0.00 0.00 68 1013.6
20260903231003 72 303 2.6 11.3 0.00 0.00 0.00 68 1013.6
20260903230503 72 272 1.7 7.8 0.00 0.00 0.00 68 1013.6
20260903230003 72 307 1.7 7.0 0.00 0.00 0.00 68 1013.6
20260903225503 72 289 1.7 7.8 0.00 0.00 0.00 68 1013.6
20260903225003 72 261 2.6 7.8 0.00 0.00 0.00 68 1013.6
20260903224502 72 252 3.5 7.8 0.00 0.00 0.00 67 1013.6
20260903224003 72 257 3.5 7.8 0.00 0.00 0.00 67 1013.6
20260903223502 72 261 3.5 10.4 0.00 0.00 0.00 67 1013.6
20260903223003 72 276 3.5 10.4 0.00 0.00 0.00 66 1013.6
20260903222503 73 312 2.6 9.6 0.00 0.00 0.00 66 1013.6
20260903222003 73 308 2.6 7.0 0.00 0.00 0.00 67 1013.6
20260903221503 73 291 2.6 7.0 0.00 0.00 0.00 66 1013.6
20260903221003 73 286 3.5 7.8 0.00 0.00 0.00 67 1013.6
20260903220524 73 278 2.6 7.8 0.00 0.00 0.00 67 1013.6
20260903220024 73 258 2.6 9.6 0.00 0.00 0.00 67 1013.6
20260903215503 73 257 2.6 9.6 0.00 0.00 0.00 67 1013.6
20260903215003 73 267 1.7 8.7 0.00 0.00 0.00 67 1013.6
20260903214503 73 268 1.7 6.1 0.00 0.00 0.00 67 1013.6
20260903214003 72 279 1.7 6.1 0.00 0.00 0.00 67 1014.4
20260903213503 72 310 1.7 7.0 0.00 0.00 0.00 68 1014.4
20260903213003 72 286 2.6 7.8 0.00 0.00 0.00 69 1014.4
20260903212503 71 296 2.6 9.6 0.00 0.00 0.00 70 1014.4
20260903212003 71 307 2.6 9.6 0.00 0.00 0.00 70 1014.4
20260903211503 70 289 2.6 7.0 0.00 0.00 0.00 71 1014.4
20260903211003 70 301 1.7 7.0 0.00 0.00 0.00 71 1014.4
20260903210503 70 305 1.7 4.3 0.00 0.00 0.00 71 1014.4
20260903210003 70 261 1.7 6.1 0.00 0.00 0.00 72 1014.4
20260903205503 69 258 1.7 6.1 0.00 0.00 0.00 71 1014.4
20260903205024 69 264 1.7 6.1 0.00 0.00 0.00 71 1014.4
20260903204503 69 253 3.5 7.8 0.00 0.00 0.00 71 1014.4
20260903204003 69 253 3.5 7.8 0.00 0.00 0.00 70 1014.4
20260903203503 70 256 3.5 8.7 0.00 0.00 0.00 70 1014.4
20260903203024 70 258 2.6 8.7 0.00 0.00 0.00 69 1014.4
20260903202503 70 255 2.6 8.7 0.00 0.00 0.00 69 1014.4
20260903202003 71 256 1.7 8.7 0.00 0.00 0.00 68 1014.4
20260903201503 71 251 1.7 7.0 0.00 0.00 0.00 68 1014.4
20260903201003 71 253 2.6 7.0 0.00 0.00 0.00 68 1014.4
20260903200503 71 256 2.6 9.6 0.00 0.00 0.00 68 1014.4
20260903200003 70 249 1.7 9.6 0.00 0.00 0.00 69 1014.4
20260903195503 70 258 1.7 7.0 0.00 0.00 0.00 69 1014.4
20260903195003 70 271 1.7 5.2 0.00 0.00 0.00 70 1014.4
20260903194524 69 249 2.6 7.8 0.00 0.00 0.00 71 1014.4
20260903194003 69 247 3.5 7.8 0.00 0.00 0.00 69 1015.0
20260903193503 69 247 1.7 6.1 0.00 0.00 0.00 70 1015.0
20260903193003 69 250 1.7 7.8 0.00 0.00 0.00 69 1015.0
20260903192503 69 252 2.6 9.6 0.00 0.00 0.00 69 1015.0
20260903192024 69 252 1.7 9.6 0.00 0.00 0.00 68 1015.0
20260903191503 69 266 1.7 5.2 0.00 0.00 0.00 68 1015.0
20260903191003 69 276 2.6 5.2 0.00 0.00 0.00 68 1015.0
20260903190503 69 276 1.7 5.2 0.00 0.00 0.00 69 1015.0
20260903190003 68 232 1.7 5.2 0.00 0.00 0.00 69 1015.0
20260903185503 68 208 2.6 7.8 0.00 0.00 0.00 69 1015.0
20260903185003 68 240 2.6 7.8 0.00 0.00 0.00 69 1015.0
20260903184524 68 266 2.6 7.8 0.00 0.00 0.00 69 1015.0
20260903184003 68 250 2.6 7.0 0.00 0.00 0.00 69 1015.0
20260903183503 68 244 2.6 7.0 0.00 0.00 0.00 69 1015.0
20260903183003 68 252 2.6 7.0 0.00 0.00 0.00 69 1015.0
20260903182524 68 239 2.6 9.6 0.00 0.00 0.00 69 1015.0
20260903182024 68 195 3.5 9.6 0.00 0.00 0.00 70 1015.0
20260903181503 67 187 2.6 7.8 0.00 0.00 0.00 71 1015.0
20260903181024 67 187 2.6 7.8 0.00 0.00 0.00 71 1015.0
20260903180503 67 202 2.6 7.8 0.00 0.00 0.00 72 1015.0
20260903180003 66 230 2.6 6.1 0.00 0.00 0.00 73 1015.0
20260903175503 66 208 2.6 7.0 0.00 0.00 0.00 73 1015.0
20260903175003 66 204 2.6 7.0 0.00 0.00 0.00 74 1015.0
20260903174503 65 210 2.6 7.0 0.00 0.00 0.00 75 1015.0
20260903174003 65 222 1.7 7.0 0.00 0.00 0.00 75 1015.2
20260903173503 64 200 2.6 7.0 0.00 0.00 0.00 76 1015.2
20260903173003 64 176 2.6 7.0 0.00 0.00 0.00 76 1015.2
20260903172503 64 177 2.6 6.1 0.00 0.00 0.00 77 1015.2
20260903172003 64 184 2.6 7.0 0.00 0.00 0.00 77 1015.2
20260903171524 63 181 3.5 7.0 0.00 0.00 0.00 77 1015.2
20260903171003 63 189 3.5 6.1 0.00 0.00 0.00 78 1015.2
20260903170503 63 187 2.6 6.1 0.00 0.00 0.00 79 1015.2
20260903170024 63 171 2.6 6.1 0.00 0.00 0.00 79 1015.2
20260903165503 62 172 2.6 5.2 0.00 0.00 0.00 80 1015.2
20260903165003 62 171 2.6 6.1 0.00 0.00 0.00 81 1015.2
20260903164503 62 160 2.6 7.8 0.00 0.00 0.00 81 1015.2
20260903164003 62 158 2.6 7.8 0.00 0.00 0.00 82 1015.3
20260903163503 62 191 2.6 5.2 0.00 0.00 0.00 82 1015.3
20260903163024 61 196 3.5 7.8 0.00 0.00 0.00 82 1015.3
20260903162503 61 197 3.5 7.8 0.00 0.00 0.00 82 1015.3
20260903162003 61 203 3.5 5.2 0.00 0.00 0.00 83 1015.3
20260903161503 61 191 2.6 7.0 0.00 0.00 0.00 83 1015.3
20260903161003 61 171 2.6 7.0 0.00 0.00 0.00 84 1015.3
20260903160503 61 182 3.5 6.1 0.00 0.00 0.00 84 1015.3
20260903160003 61 195 2.6 5.2 0.00 0.00 0.00 84 1015.4
20260903155503 61 180 2.6 5.2 0.00 0.00 0.00 85 1015.4
20260903155003 61 165 1.7 5.2 0.00 0.00 0.00 86 1015.4
20260903154503 61 163 2.6 6.1 0.00 0.00 0.00 86 1015.4
20260903154003 61 169 2.6 6.1 0.00 0.00 0.00 87 1015.4
20260903153524 60 174 1.7 4.3 0.00 0.00 0.00 88 1015.4
20260903153003 60 178 1.7 5.2 0.00 0.00 0.00 89 1015.4
20260903152524 60 169 1.7 5.2 0.00 0.00 0.00 90 1015.4
20260903152024 60 162 1.7 5.2 0.00 0.00 0.00 90 1015.4
20260903151503 59 166 0.9 5.2 0.00 0.00 0.00 90 1015.4
20260903151003 59 167 0.9 3.5 0.00 0.00 0.00 91 1015.4
20260903150503 59 167 0.9 4.3 0.00 0.00 0.00 91 1015.4
20260903150003 59 170 0.9 4.3 0.00 0.00 0.00 91 1015.8
20260903145524 58 178 0.9 3.5 0.00 0.00 0.00 91 1015.8
20260903145024 58 182 0.9 2.6 0.00 0.00 0.00 92 1015.8
20260903144503 58 184 0.0 1.7 0.00 0.00 0.00 92 1015.8
20260903144024 58 184 0.0 1.7 0.00 0.00 0.00 92 1015.8
20260903143503 57 184 0.0 0.9 0.00 0.00 0.00 91 1015.8
20260903143004 57 184 0.0 1.7 0.00 0.00 0.00 91 1015.8
20260903142503 57 184 0.9 2.6 0.00 0.00 0.00 91 1015.8
20260903142003 57 184 0.9 2.6 0.00 0.00 0.00 91 1015.8
20260903141503 56 184 0.9 1.7 0.00 0.00 0.00 91 1015.8
20260903141003 56 184 0.9 2.6 0.00 0.00 0.00 91 1015.8
20260903140503 56 184 0.0 2.6 0.00 0.00 0.00 91 1015.8
20260903140004 56 184 0.0 2.6 0.00 0.00 0.00 91 1015.8
20260903135503 56 185 0.9 2.6 0.00 0.00 0.00 91 1015.8
20260903135003 56 185 0.9 2.6 0.00 0.00 0.00 91 1015.8
20260903134503 56 186 0.9 2.6 0.00 0.00 0.00 91 1015.8
20260903134003 56 187 1.7 2.6 0.00 0.00 0.00 91 1015.8
20260903133503 56 188 0.9 2.6 0.00 0.00 0.00 91 1015.8
20260903133003 56 189 0.9 2.6 0.00 0.00 0.00 91 1015.8
20260903132524 56 189 0.9 2.6 0.00 0.00 0.00 91 1015.8
20260903132003 56 190 0.9 2.6 0.00 0.00 0.00 92 1015.8
20260903131503 56 190 0.9 1.7 0.00 0.00 0.00 92 1015.8
20260903131003 56 190 0.9 2.6 0.00 0.00 0.00 92 1015.8
20260903130503 56 190 0.9 2.6 0.00 0.00 0.00 92 1015.8
20260903130003 56 191 0.9 2.6 0.00 0.00 0.00 92 1015.8
20260903125503 56 192 0.9 1.7 0.00 0.00 0.00 92 1015.8
20260903125003 56 193 0.9 1.7 0.00 0.00 0.00 92 1015.8
20260903124503 56 193 0.9 2.6 0.00 0.00 0.00 92 1015.8
20260903124003 57 194 0.9 2.6 0.00 0.00 0.00 92 1015.8
20260903123504 57 194 0.9 2.6 0.00 0.00 0.00 93 1015.8
20260903123024 57 194 0.9 2.6 0.00 0.00 0.00 93 1015.8
20260903122503 57 196 0.9 1.7 0.00 0.00 0.00 93 1015.8
20260903122003 57 197 0.9 2.6 0.00 0.00 0.00 93 1015.8
20260903121503 57 198 0.9 2.6 0.00 0.00 0.00 93 1015.8
20260903121003 57 198 0.0 1.7 0.00 0.00 0.00 93 1015.8
20260903120503 57 198 0.9 1.7 0.00 0.00 0.00 93 1015.8
20260903120003 57 198 0.9 1.7 0.00 0.00 0.00 93 1015.8
20260903115503 57 198 0.0 1.7 0.00 0.00 0.00 93 1015.8
20260903115003 57 198 0.9 1.7 0.00 0.00 0.00 93 1015.8
20260903114503 57 198 0.9 2.6 0.00 0.00 0.00 93 1015.8
20260903114024 57 199 0.9 2.6 0.00 0.00 0.00 93 1015.8
20260903113501 57 248 0.9 2.6 0.00 0.00 0.00 93 1015.8
20260903113001 57 281 0.9 2.6 0.00 0.00 0.00 93 1015.8
20260903112501 57 293 0.9 2.6 0.00 0.00 0.00 93 1015.8
20260903112001 57 296 0.0 0.9 0.00 0.00 0.00 93 1015.8
20260903111501 57 296 0.0 0.9 0.00 0.00 0.00 93 1015.8
20260903111002 57 296 0.0 1.7 0.00 0.00 0.00 93 1015.8
20260903110502 57 296 0.9 1.7 0.00 0.00 0.00 93 1015.8
20260903110023 57 296 0.9 1.7 0.00 0.00 0.00 93 1015.9
20260903105502 57 297 0.9 1.7 0.00 0.00 0.00 92 1015.9
20260903105002 57 297 0.9 1.7 0.00 0.00 0.00 92 1015.9
20260903104523 57 297 0.9 1.7 0.00 0.00 0.00 92 1015.9
20260903104002 57 297 0.0 1.7 0.00 0.00 0.00 92 1015.9
20260903103001 57 0 0.0 0.0 0.00 0.00 0.00 92 1015.9
20260903102502 57 0 0.0 0.0 0.00 0.00 0.00 92 1015.8
20260903102002 57 297 0.0 2.6 0.00 0.00 0.00 92 1015.8
20260903101502 57 297 0.0 2.6 0.00 0.00 0.00 92 1015.8
20260903101001 57 299 0.0 1.7 0.00 0.00 0.00 92 1015.8
20260903100501 57 300 0.0 1.7 0.00 0.00 0.00 92 1015.8
20260903100002 57 0 0.0 0.0 0.00 0.00 0.00 92 1015.8
20260903095522 57 0 0.0 0.0 0.00 0.00 0.00 92 1015.8
20260903095023 57 0 0.0 0.0 0.00 0.00 0.00 92 1016.9
20260903094501 57 0 0.0 0.0 0.00 0.00 0.00 92 1016.9
20260903094002 58 0 0.0 0.0 0.00 0.00 0.00 92 1016.9
20260903093502 58 0 0.0 0.0 0.00 0.00 0.00 92 1016.9
20260903093002 58 0 0.0 0.0 0.00 0.00 0.00 92 1016.9
20260903092502 58 0 0.0 0.0 0.00 0.00 0.00 92 1016.9
20260903092023 58 0 0.0 0.0 0.00 0.00 0.00 92 1016.9
20260903091502 58 0 0.0 0.0 0.00 0.00 0.00 92 1016.9
20260903091002 58 0 0.0 0.0 0.00 0.00 0.00 92 1016.9
20260903090502 58 0 0.0 0.0 0.00 0.00 0.00 92 1016.9
20260903090023 58 303 0.0 0.9 0.00 0.00 0.00 92 1016.9
20260903085501 58 303 0.0 1.7 0.00 0.00 0.00 92 1016.9
20260903085002 58 304 0.0 1.7 0.00 0.00 0.00 92 1016.9
20260903084523 58 304 0.0 1.7 0.00 0.00 0.00 92 1016.9
20260903084002 58 304 0.0 1.7 0.00 0.00 0.00 92 1016.9
20260903083502 58 306 0.0 1.7 0.00 0.00 0.00 92 1016.9
20260903083002 58 311 0.0 1.7 0.00 0.00 0.00 92 1016.9
20260903082502 58 314 0.0 1.7 0.00 0.00 0.00 92 1016.9
20260903082023 58 317 0.0 1.7 0.00 0.00 0.00 92 1016.9
20260903081502 58 317 0.0 1.7 0.00 0.00 0.00 92 1016.9
20260903081023 58 0 0.0 0.0 0.00 0.00 0.00 92 1016.9
20260903080502 58 317 0.0 0.9 0.00 0.00 0.00 92 1016.9
20260903080023 58 317 0.0 0.9 0.00 0.00 0.00 92 1016.9
20260903075502 58 317 0.0 1.7 0.00 0.00 0.00 92 1016.9
20260903075002 58 317 0.0 1.7 0.00 0.00 0.00 92 1016.9
20260903074502 58 317 0.0 2.6 0.00 0.00 0.00 91 1016.9
20260903074002 58 317 0.0 2.6 0.00 0.00 0.00 92 1016.9
20260903073502 58 317 0.0 1.7 0.00 0.00 0.00 91 1016.9
20260903073002 58 317 0.0 1.7 0.00 0.00 0.00 91 1016.9
20260903072504 58 317 0.0 0.9 0.00 0.00 0.00 91 1016.9
20260903072002 58 317 0.0 0.9 0.00 0.00 0.00 92 1016.9
20260903071502 58 317 0.0 0.9 0.00 0.00 0.00 91 1016.9
20260903071002 58 317 0.0 0.9 0.00 0.00 0.00 91 1016.9
20260903070502 58 317 0.0 0.9 0.00 0.00 0.00 91 1016.9
20260903070012 58 319 0.0 1.7 0.00 0.00 0.00 91 1016.9
20260903065502 58 320 0.0 1.7 0.00 0.00 0.00 91 1016.9
20260903065023 58 321 0.0 1.7 0.00 0.00 0.00 91 1016.9
20260903064523 58 328 0.0 1.7 0.00 0.00 0.00 91 1016.9
20260903064023 58 331 0.0 1.7 0.00 0.00 0.00 91 1016.9
20260903063523 58 340 0.0 1.7 0.00 0.00 0.00 91 1016.9
20260903063002 58 340 0.0 1.7 0.00 0.00 0.00 91 1016.9
20260903062502 58 340 0.0 1.7 0.00 0.00 0.00 91 1016.9
20260903062002 58 340 0.0 0.9 0.00 0.00 0.00 91 1016.9
20260903061502 58 341 0.0 0.9 0.00 0.00 0.00 90 1016.9
20260903061023 58 340 0.0 1.7 0.00 0.00 0.00 90 1016.9
20260903060502 58 339 0.0 1.7 0.00 0.00 0.00 90 1016.9
20260903060002 58 338 0.0 0.9 0.00 0.00 0.00 90 1016.9
20260903055502 58 338 0.0 0.9 0.00 0.00 0.00 90 1016.9
20260903055002 58 338 0.0 2.6 0.00 0.00 0.00 90 1016.9
20260903054523 58 338 0.0 2.6 0.00 0.00 0.00 90 1016.9
20260903054002 58 340 0.0 1.7 0.00 0.00 0.00 90 1016.9
20260903053502 58 340 0.0 1.7 0.00 0.00 0.00 89 1016.5
20260903053002 58 340 0.0 1.7 0.00 0.00 0.00 89 1016.5
20260903052523 58 342 0.0 1.7 0.00 0.00 0.00 89 1016.5
20260903052002 58 337 0.9 3.5 0.00 0.00 0.00 89 1016.5
20260903051502 58 334 0.9 3.5 0.00 0.00 0.00 89 1016.5
20260903051002 58 325 0.0 2.6 0.00 0.00 0.00 89 1016.5
20260903050502 58 327 0.0 2.6 0.00 0.00 0.00 88 1016.5
20260903050002 58 324 0.0 2.6 0.00 0.00 0.00 88 1016.5
20260903045502 59 317 0.9 4.3 0.00 0.00 0.00 88 1016.5
20260903045002 59 318 0.9 4.3 0.00 0.00 0.00 88 1016.5
20260903044523 59 306 0.9 3.5 0.00 0.00 0.00 88 1016.5
20260903044023 59 301 0.9 3.5 0.00 0.00 0.00 87 1016.5
20260903043502 59 317 0.9 3.5 0.00 0.00 0.00 87 1016.5
20260903043023 59 318 0.9 3.5 0.00 0.00 0.00 86 1016.5
20260903042502 59 324 0.0 1.7 0.00 0.00 0.00 86 1016.5
20260903042023 59 323 0.0 1.7 0.00 0.00 0.00 86 1016.5
20260903041502 60 320 0.0 2.6 0.00 0.00 0.00 86 1016.5
20260903041002 60 319 0.0 2.6 0.00 0.00 0.00 86 1016.5
20260903040502 60 318 0.0 1.7 0.00 0.00 0.00 85 1016.5
20260903040002 60 319 0.0 0.9 0.00 0.00 0.00 85 1016.5
20260903035523 60 319 0.0 1.7 0.00 0.00 0.00 85 1016.5
20260903035002 60 319 0.0 1.7 0.00 0.00 0.00 85 1016.5
20260903034502 60 321 0.0 1.7 0.00 0.00 0.00 84 1016.5
20260903034023 60 321 0.0 1.7 0.00 0.00 0.00 84 1016.5
20260903033523 60 321 0.0 0.9 0.00 0.00 0.00 84 1017.6
20260903033002 60 321 0.0 1.7 0.00 0.00 0.00 83 1017.6
20260903032502 60 321 0.0 1.7 0.00 0.00 0.00 83 1017.6
20260903032002 61 316 0.0 2.6 0.00 0.00 0.00 83 1017.6
20260903031502 61 314 0.0 2.6 0.00 0.00 0.00 83 1017.6
20260903031023 61 298 0.0 2.6 0.00 0.00 0.00 82 1017.6
20260903030502 61 282 0.9 2.6 0.00 0.00 0.00 82 1017.6
20260903030002 61 296 0.9 1.7 0.00 0.00 0.00 81 1017.6
20260903025502 61 319 0.9 4.3 0.00 0.00 0.00 80 1017.6
20260903025002 61 309 0.9 4.3 0.00 0.00 0.00 80 1017.6
20260903024502 62 306 0.9 3.5 0.00 0.00 0.00 79 1017.6
20260903024002 62 313 0.9 5.2 0.00 0.00 0.00 78 1017.6
20260903023502 62 306 0.9 5.2 0.00 0.00 0.00 78 1017.6
20260903023002 62 299 1.7 6.1 0.00 0.00 0.00 77 1017.6
20260903022502 63 299 0.9 6.1 0.00 0.00 0.00 76 1017.6
20260903022002 63 313 0.9 6.1 0.00 0.00 0.00 76 1017.6
20260903021523 63 322 1.7 7.0 0.00 0.00 0.00 75 1017.6
20260903021002 64 320 1.7 7.0 0.00 0.00 0.00 75 1017.6
20260903020502 64 308 1.7 7.0 0.00 0.00 0.00 74 1017.6
20260903020002 64 285 1.7 7.0 0.00 0.00 0.00 74 1017.6
20260903015523 64 300 1.7 5.2 0.00 0.00 0.00 73 1017.6
20260903015002 64 317 1.7 7.0 0.00 0.00 0.00 72 1017.6
20260903014502 65 306 1.7 7.0 0.00 0.00 0.00 71 1017.6
20260903014023 65 292 1.7 6.1 0.00 0.00 0.00 71 1017.6
20260903013502 65 302 1.7 6.1 0.00 0.00 0.00 71 1017.6
20260903013002 66 299 1.7 7.0 0.00 0.00 0.00 70 1017.6
20260903012502 66 291 1.7 7.0 0.00 0.00 0.00 68 1017.6
20260903012002 66 286 1.7 7.0 0.00 0.00 0.00 67 1017.6
20260903011502 67 264 1.7 7.0 0.00 0.00 0.00 65 1017.6
20260903011002 67 278 1.7 7.8 0.00 0.00 0.00 65 1017.6
20260903010502 68 300 1.7 7.8 0.00 0.00 0.00 65 1017.6
20260903010002 68 293 1.7 3.5 0.00 0.00 0.00 66 1017.6
20260903005502 68 308 1.7 8.7 0.00 0.00 0.00 66 1017.6
20260903005002 68 319 2.6 9.6 0.00 0.00 0.00 65 1017.6
20260903004502 68 327 2.6 9.6 0.00 0.00 0.00 65 1017.6
20260903004002 68 320 1.7 5.2 0.00 0.00 0.00 65 1017.6
20260903003502 69 316 1.7 7.8 0.00 0.00 0.00 66 1017.6
20260903003002 69 311 1.7 7.8 0.00 0.00 0.00 67 1017.6
20260903002504 69 288 1.7 7.0 0.00 0.00 0.00 67 1017.6
20260903002002 69 295 2.6 9.6 0.00 0.00 0.00 66 1017.6
20260903001502 70 308 1.7 9.6 0.00 0.00 0.00 65 1017.6
20260903001002 70 325 1.7 8.7 0.00 0.00 0.00 65 1017.6
20260903000502 70 323 2.6 8.7 0.00 0.00 0.00 66 1017.6
20260903000002 70 318 2.6 9.6 0.00 0.00 0.00 65 1017.6
20260902235502 70 306 2.6 9.6 0.00 0.00 0.00 65 1017.6
20260902235002 70 288 2.6 11.3 0.00 0.00 0.00 65 1017.6
20260902234502 70 299 2.6 11.3 0.00 0.00 0.00 65 1017.6
20260902234023 70 305 2.6 11.3 0.00 0.00 0.00 66 1017.6